Location: Houston
(29.7630°N, 95.3630°W)
Time: 10:24:03
(UTC-05:00)

ISS - All Passes

Search period start: 07 July 2015 00:00
Search period end: 17 July 2015 00:00
Orbit: 398 x 402 km, 51.6° (Epoch: 07 July)

Date Brightness Start Highest point End Pass type
(mag) Time Alt. Az. Time Alt. Az. Time Alt. Az.
07 Jul - 07:15:10 10° WSW 07:18:19 48° NW 07:21:28 10° NNE daylight
07 Jul - 13:49:12 10° NNE 13:49:52 11° NNE 13:50:38 10° NE daylight
07 Jul - 15:23:23 10° NW 15:26:35 64° SW 15:29:46 10° SSE daylight
08 Jul - 06:21:31 10° SW 06:24:44 65° SE 06:27:57 10° NE daylight
08 Jul - 08:00:44 10° NW 08:01:27 10° NNW 08:02:04 10° NNW daylight
08 Jul - 14:29:51 10° NNW 14:32:59 48° NE 14:36:07 10° ESE daylight
09 Jul - 05:28:29 10° S 05:31:12 25° SE 05:33:57 10° ENE visible
09 Jul - 07:05:07 10° W 07:07:35 19° NW 07:10:00 10° N daylight
09 Jul - 13:36:40 10° NNW 13:39:15 22° NE 13:41:54 10° E daylight
09 Jul - 15:13:03 10° WNW 15:15:35 21° SW 15:18:03 10° S daylight
10 Jul - 04:36:47 10° SE 04:37:40 11° SE 04:38:43 10° ESE visible
10 Jul - 06:10:44 10° WSW 06:13:48 40° NW 06:16:53 10° NNE daylight
10 Jul - 12:44:06 10° N 12:45:23 12° NNE 12:46:45 10° ENE daylight
10 Jul - 14:18:52 10° NW 14:22:01 52° SW 14:25:10 10° SSE daylight
11 Jul - 05:16:54 10° SW 05:20:08 80° SE 05:23:22 10° NE visible
11 Jul - 13:25:11 10° NW 13:28:23 59° NE 13:31:34 10° SE daylight
12 Jul - 04:23:38 10° SSW 04:26:30 30° SE 04:29:25 10° ENE visible
12 Jul - 06:00:41 10° W 06:02:57 17° NW 06:05:09 10° N visible
12 Jul - 12:31:51 10° NNW 12:34:36 25° NE 12:37:22 10° E daylight
12 Jul - 14:08:34 10° W 14:10:52 18° SW 14:13:05 10° S daylight
13 Jul - 03:31:23 10° SSE 03:32:55 13° SE 03:34:34 10° E visible
13 Jul - 05:06:05 10° WSW 05:09:05 34° NW 05:12:05 10° NNE visible
13 Jul - 11:39:02 10° N 11:40:41 13° NE 11:42:25 10° ENE daylight
13 Jul - 13:14:10 10° WNW 13:17:14 42° SW 13:20:18 10° SSE daylight
14 Jul - 04:12:04 10° SW 04:15:18 85° NW 04:18:33 10° NE visible
14 Jul - 12:20:20 10° NW 12:23:33 71° NE 12:26:45 10° SE daylight
15 Jul - 03:18:37 10° SSW 03:21:36 36° SE 03:24:38 10° ENE visible
15 Jul - 04:56:05 10° WNW 04:58:06 15° NW 05:00:04 10° N visible
15 Jul - 11:26:51 10° NNW 11:29:43 29° NE 11:32:37 10° ESE daylight
15 Jul - 13:03:54 10° W 13:05:56 15° SW 13:07:50 10° SSW daylight
16 Jul - 02:26:00 10° SSE 02:27:56 15° SE 02:29:58 10° E night (unlit)
16 Jul - 04:01:14 10° WSW 04:04:08 29° NW 04:07:02 10° NNE visible
16 Jul - 10:33:49 10° N 10:35:45 15° NE 10:37:45 10° ENE daylight
16 Jul - 12:09:15 10° WNW 12:12:14 36° SW 12:15:14 10° SSE daylight
